GW4020 Weather Reports


time (UTC)temp
F
wind
direction
speed
knots
gust
knots
rain 1hr
in
rain 24hr
in
rain mn
in
humidity
%
barometer
mb
20260507040613 41 329 0.0 0.0 0.00 0.00 0.00 99 1011.3
20260507040109 41 329 0.0 0.0 0.00 0.00 0.00 99 1011.3
20260507035604 41 329 0.0 0.0 0.00 0.50 0.50 99 1011.4
20260507035100 41 347 0.0 0.0 0.00 0.50 0.50 99 1011.7
20260507034557 42 347 0.0 0.0 0.00 0.50 0.50 99 1011.5
20260507034055 42 347 0.0 0.0 0.00 0.50 0.50 99 1011.5
20260507033553 42 347 0.0 0.0 0.00 0.50 0.50 99 1011.5
20260507033050 42 347 0.0 0.0 0.00 0.50 0.50 99 1011.3
20260507032547 42 347 0.0 0.0 0.00 0.50 0.50 99 1011.4
20260507032043 42 347 0.0 0.0 0.00 0.50 0.50 99 1011.2
20260507031540 42 347 0.0 0.0 0.00 0.50 0.50 99 1011.4
20260507031037 42 347 0.0 0.0 0.00 0.50 0.50 99 1011.2
20260507030534 42 347 0.0 0.0 0.00 0.50 0.50 99 1011.2
20260507030032 42 347 0.0 0.0 0.00 0.50 0.50 99 1011.1
20260507025528 42 347 0.0 0.0 0.00 0.50 0.50 99 1011.0
20260507025026 42 347 0.0 0.0 0.00 0.50 0.50 99 1011.2
20260507024523 42 347 0.0 0.0 0.00 0.50 0.50 99 1011.5
20260507024020 42 347 0.0 0.0 0.00 0.50 0.50 99 1011.7
20260507023516 42 347 0.0 0.0 0.00 0.50 0.50 99 1011.4
20260507023014 42 347 0.0 0.0 0.00 0.50 0.50 99 1011.6
20260507022510 43 347 0.0 0.0 0.00 0.50 0.50 99 1011.5
20260507022000 43 348 0.0 0.0 0.00 0.50 0.50 99 1011.7
20260507021456 43 348 0.0 0.0 0.00 0.50 0.50 99 1011.2
20260507020953 43 348 0.0 0.0 0.00 0.50 0.50 99 1011.4
20260507020450 43 348 0.0 0.0 0.00 0.50 0.50 99 1011.8
20260507015947 44 348 0.0 0.0 0.00 0.50 0.50 99 1012.0
20260507015446 44 347 0.0 0.0 0.00 0.50 0.50 98 1012.1
20260507014942 44 348 0.0 0.0 0.00 0.50 0.50 98 1011.5
20260507014439 44 348 0.0 0.0 0.00 0.50 0.50 98 1011.8
20260507013935 44 348 0.0 0.0 0.00 0.50 0.50 98 1012.1
20260507013432 44 348 0.0 0.0 0.00 0.50 0.50 98 1012.1
20260507012929 44 348 0.0 0.0 0.00 0.50 0.50 98 1012.2
20260507012426 44 348 0.0 0.0 0.00 0.50 0.50 98 1011.9
20260507011922 44 348 0.0 0.0 0.00 0.50 0.50 98 1011.8
20260507011419 44 348 0.0 0.0 0.00 0.50 0.50 98 1012.0
20260507010914 44 348 0.0 0.0 0.00 0.50 0.50 98 1011.8
20260507010409 44 348 0.0 0.0 0.00 0.50 0.50 98 1011.7
20260507005907 44 348 0.0 0.0 0.00 0.50 0.50 98 1011.7
20260507005403 44 348 0.0 0.0 0.00 0.50 0.50 97 1011.6
20260507004900 44 348 0.0 0.0 0.00 0.50 0.50 97 1011.3
20260507004357 44 348 0.9 0.9 0.00 0.50 0.50 97 1011.7
20260507003854 44 332 0.0 0.9 0.00 0.50 0.50 97 1011.7
20260507003349 44 343 0.9 1.7 0.00 0.50 0.50 97 1011.7
20260507002845 44 349 0.0 0.0 0.00 0.50 0.50 97 1011.2
20260507002341 44 334 0.0 0.9 0.00 0.50 0.50 96 1011.4
20260507001838 44 304 1.7 1.7 0.00 0.50 0.50 96 1011.3
20260507001335 44 345 0.9 0.9 0.00 0.50 0.50 97 1011.2
20260507000832 44 342 0.0 0.9 0.00 0.50 0.50 97 1011.0
20260507000328 44 320 1.7 2.6 0.00 0.50 0.50 97 1010.9
20260506235824 44 330 0.9 0.9 0.00 0.50 0.50 97 1010.8
20260506235320 44 15 0.0 0.9 0.00 0.50 0.50 97 1010.7
20260506234817 44 344 0.9 0.9 0.00 0.50 0.50 97 1010.8
20260506234315 44 55 0.0 0.9 0.00 0.50 0.50 97 1010.7
20260506233812 44 331 1.7 1.7 0.00 0.50 0.50 97 1010.7
20260506233308 44 307 0.9 1.7 0.00 0.50 0.50 98 1010.8
20260506232805 44 5 0.0 0.0 0.00 0.50 0.50 98 1010.7
20260506232300 44 357 0.0 0.0 0.00 0.50 0.50 98 1010.6
20260506231757 44 336 0.0 0.0 0.00 0.50 0.50 98 1010.4
20260506231255 44 267 1.7 2.6 0.00 0.50 0.50 98 1010.7
20260506230752 44 346 0.0 0.0 0.00 0.50 0.50 98 1010.7
20260506230249 44 303 3.5 3.5 0.00 0.50 0.50 98 1010.6
20260506225745 44 342 4.3 5.2 0.00 0.50 0.50 98 1010.7
20260506225242 44 7 0.0 0.0 0.00 0.50 0.50 99 1010.8
20260506224738 44 353 0.9 0.9 0.00 0.50 0.50 99 1010.8
20260506224236 44 287 2.6 2.6 0.00 0.50 0.50 99 1010.4
20260506223732 44 33 0.9 0.9 0.00 0.50 0.50 99 1010.6
20260506223227 44 280 4.3 6.1 0.00 0.50 0.50 99 1010.6
20260506222725 44 293 2.6 2.6 0.00 0.50 0.50 99 1010.4
20260506222220 45 270 3.5 3.5 0.00 0.50 0.50 98 1010.1
20260506221718 45 338 0.9 0.9 0.00 0.50 0.50 98 1010.1
20260506221216 45 342 4.3 6.1 0.00 0.50 0.50 98 1010.2
20260506220713 45 283 1.7 1.7 0.00 0.50 0.50 98 1010.0
20260506220208 45 299 1.7 1.7 0.00 0.50 0.50 98 1009.9
20260506215705 45 19 1.7 3.5 0.00 0.50 0.50 98 1009.9
20260506215200 45 345 0.9 1.7 0.00 0.50 0.50 97 1009.8
20260506214657 45 345 0.9 1.7 0.00 0.50 0.50 97 1009.7
20260506214154 45 331 0.9 0.9 0.00 0.50 0.50 97 1009.5
20260506213653 45 343 0.9 1.7 0.07 0.50 0.50 97 1009.5
20260506213150 45 347 2.6 3.5 0.07 0.50 0.50 97 1009.5
20260506212647 45 350 0.0 0.0 0.00 0.49 0.49 97 1009.3
20260506212141 46 317 2.6 2.6 0.05 0.49 0.49 97 1009.5
20260506211638 46 31 2.6 2.6 0.05 0.49 0.49 97 1009.4
20260506211134 46 336 0.9 0.9 0.00 0.48 0.48 97 1009.3
20260506210627 46 327 4.3 6.1 0.00 0.48 0.48 97 1009.2
20260506210123 47 314 2.6 3.5 0.00 0.48 0.48 97 1008.9
20260506205619 47 344 3.5 3.5 0.00 0.48 0.48 97 1008.9
20260506205114 47 325 3.5 5.2 0.00 0.48 0.48 97 1008.7
20260506204613 48 304 4.3 6.1 0.00 0.48 0.48 97 1008.4
20260506204109 48 342 2.6 3.5 0.00 0.48 0.48 97 1008.4
20260506203608 48 336 0.0 0.9 0.00 0.48 0.48 97 1008.3
20260506203104 48 336 1.7 2.6 0.00 0.48 0.48 97 1008.2
20260506202602 48 352 0.0 0.0 0.07 0.48 0.48 97 1007.9
20260506202058 48 330 0.9 0.9 0.07 0.48 0.48 97 1008.0
20260506201555 48 337 3.5 5.2 0.12 0.48 0.48 97 1007.8
20260506201052 49 315 1.7 2.6 0.12 0.47 0.47 97 1007.7
20260506200548 49 305 1.7 2.6 0.12 0.46 0.46 97 1007.6
20260506200045 50 265 2.6 2.6 0.12 0.45 0.45 96 1007.7
20260506195541 51 334 5.2 7.8 0.07 0.44 0.44 96 1007.5
20260506195038 56 334 12.2 14.8 0.07 0.43 0.43 96 1007.4
20260506194536 56 328 2.6 2.6 0.07 0.43 0.43 98 1007.2
20260506194032 56 345 2.6 3.5 0.00 0.42 0.42 97 1007.0
20260506193530 56 323 0.9 0.9 0.00 0.42 0.42 97 1007.2
20260506193027 57 336 0.9 1.7 0.00 0.42 0.42 97 1007.0
20260506192523 57 327 0.9 0.9 0.00 0.42 0.42 96 1007.1
20260506192019 57 338 0.9 1.7 0.00 0.42 0.42 96 1007.3
20260506191516 57 349 1.7 1.7 0.00 0.42 0.42 95 1007.3
20260506191012 57 202 1.7 2.6 0.00 0.42 0.42 95 1007.2
20260506190510 57 340 1.7 1.7 0.00 0.42 0.42 95 1007.0
20260506190007 57 314 1.7 1.7 0.00 0.42 0.42 95 1007.0
20260506185504 57 342 2.6 2.6 0.00 0.42 0.42 95 1007.1
20260506185000 57 198 1.7 2.6 0.00 0.42 0.42 95 1007.1
20260506184457 57 226 0.9 0.9 0.00 0.42 0.42 95 1007.1
20260506183954 57 339 0.9 1.7 0.00 0.42 0.42 95 1007.3
20260506183450 57 269 1.7 1.7 0.00 0.42 0.42 95 1007.2
20260506182947 57 277 1.7 2.6 0.00 0.42 0.42 96 1007.3
20260506182444 57 345 0.9 1.7 0.00 0.42 0.42 96 1007.2
20260506181941 57 358 0.9 1.7 0.00 0.42 0.42 96 1007.2
20260506181439 56 287 0.9 1.7 0.00 0.42 0.42 96 1007.1
20260506180935 56 335 0.0 0.9 0.00 0.42 0.42 96 1007.5
20260506180432 56 322 0.9 1.7 0.00 0.42 0.42 97 1007.3
20260506175929 57 330 0.0 0.0 0.00 0.42 0.42 97 1007.1
20260506175425 56 354 1.7 2.6 0.00 0.42 0.42 96 1007.2
20260506174922 56 315 0.9 1.7 0.00 0.42 0.42 96 1007.3
20260506174420 56 347 0.9 1.7 0.00 0.42 0.42 97 1007.1
20260506173917 56 335 0.9 0.9 0.00 0.42 0.42 96 1007.3
20260506173414 56 353 1.7 1.7 0.00 0.42 0.42 96 1007.3
20260506172911 56 332 0.0 0.0 0.00 0.42 0.42 97 1007.2
20260506172407 56 296 2.6 2.6 0.00 0.42 0.42 97 1007.4
20260506171905 56 247 3.5 6.1 0.00 0.42 0.42 97 1007.3
20260506171402 56 27 1.7 2.6 0.00 0.42 0.42 97 1007.4
20260506170900 56 330 0.0 0.9 0.00 0.42 0.42 97 1007.2
20260506170355 56 306 1.7 1.7 0.00 0.42 0.42 98 1007.2
20260506165849 56 10 0.0 0.0 0.00 0.42 0.42 98 1007.2
20260506165346 56 323 1.7 1.7 0.00 0.42 0.42 98 1007.3
20260506164842 56 14 0.0 0.9 0.00 0.42 0.42 97 1007.3
20260506164339 56 341 0.0 0.0 0.00 0.42 0.42 98 1007.2
20260506163837 56 349 0.0 0.9 0.05 0.42 0.42 97 1007.3
20260506163331 56 338 0.0 0.0 0.12 0.42 0.42 97 1007.4
20260506162827 55 321 0.9 0.9 0.12 0.41 0.41 97 1007.3
20260506162325 55 275 2.6 3.5 0.12 0.40 0.40 97 1007.4
20260506161817 55 351 0.9 0.9 0.12 0.40 0.40 97 1007.6
20260506161314 55 340 0.0 0.9 0.00 0.38 0.38 97 1007.6
20260506160811 55 331 0.9 1.7 0.00 0.38 0.38 97 1007.4
20260506160308 55 13 0.9 0.9 0.00 0.38 0.38 97 1007.6
20260506155807 55 348 0.9 1.7 0.00 0.38 0.38 96 1007.5
20260506155306 55 7 0.9 1.7 0.00 0.38 0.38 96 1007.4
20260506153415 55 3 0.0 0.0 0.00 0.37 0.37 96 1007.4
20260506152913 55 106 1.7 2.6 0.00 0.37 0.37 96 1007.4
20260506152409 55 349 1.7 1.7 0.07 0.37 0.37 96 1007.4
20260506151908 55 11 0.9 0.9 0.12 0.37 0.37 96 1007.3
20260506151404 55 291 1.7 1.7 0.12 0.36 0.36 96 1007.5
20260506150902 55 290 1.7 1.7 0.12 0.35 0.35 96 1007.6
20260506150358 55 347 0.0 0.0 0.05 0.34 0.34 96 1007.6
20260506145855 55 346 0.0 0.9 0.07 0.33 0.33 96 1007.6
20260506145351 55 351 0.9 1.7 0.07 0.33 0.33 96 1007.7
20260506144849 55 324 1.7 1.7 0.12 0.33 0.33 96 1007.5
20260506144345 55 14 0.0 0.9 0.12 0.32 0.32 96 1007.4
20260506143844 55 5 0.0 0.0 0.07 0.31 0.31 96 1007.4
20260506143340 55 283 1.7 1.7 0.00 0.30 0.30 96 1007.6
20260506142839 55 280 2.6 2.6 0.00 0.30 0.30 95 1007.5
20260506142336 55 334 0.0 0.9 0.07 0.30 0.30 95 1007.4
20260506141834 55 348 0.9 0.9 0.07 0.30 0.30 95 1007.4
20260506141332 55 326 1.7 2.6 0.00 0.29 0.29 95 1007.4
20260506140830 55 331 1.7 1.7 0.00 0.29 0.29 95 1007.6
20260506140327 55 289 1.7 2.6 0.00 0.29 0.29 95 1007.6
20260506135824 55 1 0.9 1.7 0.05 0.29 0.29 95 1007.6
20260506135320 55 250 5.2 7.0 0.05 0.29 0.29 95 1007.4
20260506134817 55 320 1.7 1.7 0.00 0.28 0.28 95 1007.3
20260506134313 55 328 2.6 2.6 0.00 0.28 0.28 94 1007.2
20260506133810 55 16 0.9 0.9 0.12 0.28 0.28 94 1007.1
20260506133307 55 10 0.0 0.0 0.19 0.28 0.28 94 1007.2
20260506132804 54 350 1.7 2.6 0.12 0.26 0.26 95 1007.4
20260506132301 54 339 0.0 0.9 0.12 0.26 0.26 95 1007.5
20260506131759 54 356 0.9 1.7 0.12 0.25 0.25 96 1007.5
20260506131254 54 19 0.9 0.9 0.07 0.24 0.24 96 1007.7
20260506130752 54 32 0.0 0.0 0.05 0.23 0.23 96 1007.9
20260506130248 54 341 1.7 1.7 0.05 0.23 0.23 97 1008.1
20260506125747 54 350 0.9 0.9 0.07 0.22 0.22 97 1008.2
20260506125244 54 24 0.9 0.9 0.12 0.22 0.22 98 1008.4
20260506124743 54 345 0.0 0.9 0.12 0.21 0.21 98 1008.3
20260506124240 53 322 0.9 1.7 0.12 0.20 0.20 98 1008.3
20260506123737 53 345 0.0 0.9 0.12 0.19 0.19 99 1008.4
20260506123236 53 340 0.0 0.0 0.14 0.18 0.18 99 1008.3
20260506122732 53 354 0.0 0.0 0.07 0.17 0.17 99 1008.3
20260506122229 53 339 0.0 0.0 0.00 0.16 0.16 98 1008.2
20260506121728 53 339 0.0 0.0 0.05 0.16 0.16 98 1008.2
20260506121224 53 339 0.0 0.0 0.12 0.16 0.16 98 1008.1
20260506120722 53 339 0.0 0.0 0.07 0.15 0.15 98 1008.0
20260506120219 53 339 0.0 0.0 0.05 0.14 0.14 98 1007.9
20260506115717 53 339 0.0 0.0 0.05 0.14 0.14 98 1008.1
20260506115215 53 339 0.0 0.0 0.07 0.13 0.13 98 1008.0
20260506114712 53 339 0.0 0.0 0.07 0.13 0.13 98 1008.0
20260506114209 53 339 0.0 0.0 0.05 0.12 0.12 98 1008.1
20260506113708 53 339 0.0 0.0 0.12 0.12 0.12 98 1008.1
20260506113205 53 339 0.0 0.0 0.12 0.11 0.11 98 1008.2
20260506112701 53 339 0.0 0.0 0.05 0.10 0.10 98 1008.1
20260506112159 53 339 0.0 0.0 0.12 0.10 0.10 98 1008.1
20260506111656 53 339 0.0 0.0 0.07 0.09 0.09 98 1008.1
20260506111154 53 339 0.0 0.0 0.05 0.08 0.08 98 1008.3
20260506110651 53 339 0.0 0.0 0.05 0.08 0.08 98 1008.2
20260506110148 53 339 0.0 0.0 0.00 0.07 0.07 98 1008.0
20260506105645 52 339 0.0 0.0 0.07 0.07 0.07 97 1008.1
20260506105141 52 339 0.0 0.0 0.14 0.07 0.07 97 1008.1
20260506104640 52 339 0.0 0.0 0.07 0.06 0.06 97 1008.1
20260506104137 52 339 0.0 0.0 0.12 0.06 0.06 97 1008.1
20260506103634 52 339 0.0 0.0 0.05 0.05 0.05 97 1008.3
20260506103131 52 339 0.0 0.0 0.07 0.04 0.04 97 1008.3
20260506102629 52 339 0.0 0.0 0.07 0.04 0.04 96 1008.0
20260506102126 52 339 0.0 0.0 0.05 0.03 0.03 96 1008.1
20260506101623 52 339 0.0 0.0 0.05 0.03 0.03 96 1008.1
20260506101119 52 339 0.0 0.0 0.07 0.02 0.02 96 1008.0
20260506100618 53 339 0.0 0.0 0.07 0.02 0.02 95 1008.0
20260506100116 53 339 0.0 0.0 0.00 0.01 0.01 95 1008.0
20260506095615 53 339 0.0 0.0 0.00 0.01 0.01 95 1008.2
20260506095111 53 339 0.0 0.0 0.00 0.01 0.01 94 1008.0
20260506094608 53 339 0.0 0.0 0.00 0.01 0.01 94 1007.8
20260506094106 53 339 0.0 0.0 0.05 0.01 0.01 93 1007.9
20260506093604 53 339 0.0 0.0 0.05 0.01 0.01 92 1007.8
20260506093101 53 339 0.0 0.0 0.00 0.00 0.00 91 1007.8
20260506092559 54 338 0.0 0.0 0.00 0.00 0.00 90 1008.0
20260506092055 54 339 0.0 0.0 0.00 0.00 0.00 88 1008.0
20260506091554 55 339 0.0 0.0 0.00 0.00 0.00 87 1007.9
20260506091051 55 339 0.0 0.0 0.00 0.00 0.00 85 1007.9
20260506090549 55 339 0.0 0.0 0.00 0.00 0.00 81 1007.9
20260506090044 56 340 0.0 0.0 0.00 0.00 0.00 80 1007.8
20260506085542 56 343 0.0 0.0 0.00 0.00 0.00 78 1007.7
20260506085038 56 344 0.0 0.0 0.00 0.00 0.00 78 1007.8
20260506084535 56 344 0.0 0.0 0.00 0.00 0.00 79 1008.0
20260506084031 56 344 0.0 0.0 0.00 0.00 0.00 78 1008.2
20260506083529 56 343 0.0 0.0 0.00 0.00 0.00 79 1008.2
20260506083026 57 349 0.0 0.0 0.00 0.00 0.00 78 1008.0
20260506082523 57 351 0.0 0.0 0.00 0.00 0.00 76 1008.2
20260506082018 58 351 0.0 0.0 0.00 0.00 0.00 72 1008.2
20260506081517 59 342 0.0 0.0 0.00 0.00 0.00 69 1008.3
20260506081014 60 315 0.9 1.7 0.00 0.00 0.00 64 1008.3
20260506080511 60 359 0.0 0.0 0.00 0.00 0.00 61 1008.3
20260506073455 60 343 0.0 0.9 0.00 0.00 0.00 61 1007.9
20260506072952 60 343 0.0 0.0 0.00 0.00 0.00 62 1008.0
20260506072449 61 347 0.0 0.0 0.00 0.00 0.00 62 1007.9
20260506071947 60 356 0.0 0.9 0.00 0.00 0.00 59 1008.1
20260506071444 61 309 0.9 0.9 0.00 0.00 0.00 60 1007.9
20260506070941 61 6 0.0 0.0 0.00 0.00 0.00 62 1008.0
20260506070438 61 55 0.9 1.7 0.00 0.00 0.00 60 1007.9
20260506062416 57 357 0.0 0.0 0.00 0.00 0.00 72 1008.4
20260506061911 55 350 0.0 0.0 0.00 0.00 0.00 78 1008.7
20260506061408 54 357 0.0 0.0 0.00 0.00 0.00 84 1008.6
20260506060906 54 3 0.9 0.9 0.00 0.00 0.00 86 1008.4
20260506060404 53 331 0.0 0.0 0.00 0.00 0.00 86 1008.9
20260506051336 52 13 0.0 0.0 0.00 0.00 0.00 86 1009.5
20260506050833 52 12 0.0 0.0 0.00 0.00 0.00 86 1009.4
20260506050330 53 12 0.0 0.0 0.00 0.00 0.00 86 1009.5
20260506044821 53 11 0.0 0.0 0.00 0.00 0.00 86 1009.5
20260506044319 53 11 0.0 0.0 0.00 0.00 0.00 86 1009.5
20260506043816 53 11 0.0 0.0 0.00 0.00 0.00 86 1009.5
20260506043313 53 11 0.0 0.0 0.00 0.00 0.00 85 1009.4
20260506042812 53 11 0.0 0.0 0.00 0.00 0.00 85 1009.5
20260506042310 53 11 0.0 0.0 0.00 0.00 0.00 85 1009.2
20260506041809 54 11 0.0 0.0 0.00 0.00 0.00 84 1009.5
20260506041305 54 11 0.0 0.0 0.00 0.00 0.00 84 1009.3